Weather History for KCHS - November, 2012

Change the Weather History Date:

Tuesday, November 13, 2012

  Actual Average Record
Temperature  
Mean Temperature 65 °F 59 °F  
Max Temperature 78 °F 71 °F 82 °F (1989)
Min Temperature 52 °F 48 °F 29 °F (1941)
Degree Days  
Heating Degree Days 0 7  
Month to date heating degree days 109 73  
Since 1 July heating degree days 167 142  
Cooling Degree Days 0 1  
Month to date cooling degree days 6 18  
Year to date cooling degree days 2460 2282  
Growing Degree Days 16 (Base 50)    
Moisture  
Dew Point 57 °F    
Average Humidity 79    
Maximum Humidity 93    
Minimum Humidity 64    
Precipitation  
Precipitation T in 0.08 in 0.69 in (1997)
Month to date precipitation 0.44 1.07  
Year to date precipitation 38.65 46.56  
Snow  
Snow 0.00 in 0.00 in - ()
Month to date snowfall 0.0  
Since 1 July snowfall 0.0 0.0  
Since 1 September snowfall 0.0 0.0  
Snow Depth 0.00 in    
Sea Level Pressure  
Sea Level Pressure 30.21 in    
Wind  
Wind Speed 8 mph (North)    
Max Wind Speed 20 mph    
Max Gust Speed 26 mph    
Visibility 10 miles    
Events Rain    
T = Trace of Precipitation, MM = Missing Value Source: NWS Daily Summary

Daily Weather History Graph

Daily Weather History Graph

Search for Another Location

Airport or City:

Trip Planner

Search our weather history database for the weather conditions in past years. The results will help you decide how hot, cold, wet, or windy it might be!

Date:

Astronomy

Nov. 13, 2012 Rise Set
Actual Time 6:49 AM EST 5:19 PM EST
Civil Twilight 6:23 AM EST 5:45 PM EST
Nautical Twilight 5:53 AM EST 6:15 PM EST
Astronomical Twilight 5:24 AM EST 6:44 PM EST
Moon 6:24 AM EST (11/13) 5:12 PM EST (11/13)
Length of Visible Light 11h 22m
Length of Day
10h 30m
Waning Crescent, 0% of the Moon is Illuminated
Nov 13
Waning Crescent
Nov 13
New
Nov 20
First Quarter
Nov 28
Full
Dec 6
Last Quarter

Hourly Weather History & Observations

Time (EST) Temp. Dew Point Humidity Pressure Visibility Wind Dir Wind Speed Gust Speed Precip Events Conditions
12:56 AM 64.9 °F 61.0 °F 87% 30.18 in 10.0 mi SSE 6.9 mph - N/A   Scattered Clouds
1:56 AM 64.0 °F 61.0 °F 90% 30.17 in 10.0 mi SW 4.6 mph - N/A   Scattered Clouds
2:56 AM 64.9 °F 61.0 °F 87% 30.17 in 10.0 mi Calm Calm - N/A   Mostly Cloudy
3:56 AM 63.0 °F 61.0 °F 93% 30.17 in 10.0 mi Calm Calm - N/A   Scattered Clouds
4:56 AM 62.1 °F 60.1 °F 93% 30.17 in 10.0 mi Calm Calm - N/A   Mostly Cloudy
5:56 AM 62.1 °F 60.1 °F 93% 30.18 in 10.0 mi Calm Calm - N/A   Overcast
6:56 AM 64.0 °F 61.0 °F 90% 30.19 in 10.0 mi Calm Calm - N/A   Mostly Cloudy
7:56 AM 62.1 °F 60.1 °F 93% 30.21 in 10.0 mi Calm Calm - N/A   Scattered Clouds
8:56 AM 70.0 °F 62.1 °F 76% 30.22 in 10.0 mi West 6.9 mph - N/A   Scattered Clouds
9:56 AM 72.0 °F 62.1 °F 71% 30.23 in 10.0 mi NW 6.9 mph - N/A   Scattered Clouds
10:56 AM 75.0 °F 62.1 °F 64% 30.21 in 10.0 mi Calm Calm - N/A   Mostly Cloudy
11:56 AM 75.0 °F 62.1 °F 64% 30.19 in 10.0 mi NW 6.9 mph - N/A   Mostly Cloudy
12:56 PM 75.9 °F 62.1 °F 62% 30.16 in 10.0 mi NNW 6.9 mph - N/A   Mostly Cloudy
1:56 PM 73.0 °F 62.1 °F 68% 30.15 in 10.0 mi North 17.3 mph - N/A   Mostly Cloudy
2:56 PM 64.0 °F 55.9 °F 75% 30.17 in 10.0 mi North 12.7 mph - N/A   Overcast
3:56 PM 60.1 °F 53.1 °F 78% 30.19 in 10.0 mi North 15.0 mph - N/A   Overcast
4:43 PM 57.2 °F 51.8 °F 82% 30.21 in 10.0 mi North 12.7 mph - N/A   Overcast
4:56 PM 57.0 °F 51.1 °F 81% 30.21 in 10.0 mi North 13.8 mph - 0.00 in Rain Light Rain
5:56 PM 55.9 °F 50.0 °F 80% 30.23 in 10.0 mi North 11.5 mph - 0.00 in   Overcast
6:56 PM 54.0 °F 50.0 °F 86% 30.25 in 10.0 mi North 11.5 mph - 0.00 in   Overcast
7:51 PM 53.6 °F 48.2 °F 82% 30.26 in 10.0 mi North 11.5 mph - N/A   Overcast
7:56 PM 53.1 °F 48.9 °F 86% 30.26 in 10.0 mi North 11.5 mph - N/A   Overcast
8:56 PM 53.1 °F 48.9 °F 86% 30.27 in 10.0 mi North 12.7 mph 19.6 mph N/A   Overcast
9:56 PM 53.1 °F 48.9 °F 86% 30.29 in 10.0 mi NNE 12.7 mph - N/A   Overcast
10:56 PM 53.1 °F 48.9 °F 86% 30.29 in 10.0 mi NNE 10.4 mph - N/A   Overcast
11:56 PM 52.0 °F 48.9 °F 89% 30.29 in 9.0 mi NNE 12.7 mph - N/A   Overcast